Weather in Raihorodok

Ukraine / Donetsk Region     48°54′00″N   37°43′26″E
temp.,
°C
wind,
m/s
gust,
m/s
humid.,
%
clouds,
%
prec.,
mm/h
press.,
hPa
HPBL,
m
9 may, sun
sun900:00+8nw81392100 2.5 1010593
03:00+6nw51091100 6.5 1012677
06:00+6nw71183100 0.1 10131058
09:00+6nw7108199 0.2 10151066
12:00+9nw8106299 0.1 10171393
15:00+13nnw91044100 0.1 10172386
18:00+11nnw7105686 0.0 10201792
21:00+6nw497372 0.0 1022199
10 may, mon
mon1000:00+5nw511795 0.0 1023296
03:00+4nw4108515 0.0 1024256
06:00+5nw5137719 0.0 1023441
09:00+11nnw81356100 0.0 10221581
12:00+13nnw10134599 0.0 10212286
15:00+13nnw81355100 0.0 10201933
18:00+12nnw91660100 0.0 10181593
21:00+10nnw111868100 0.1 10151104
11 may, tue
tue1100:00+9n112092100 1.2 1012790
03:00+10n81593100 1.9 1011963
06:00+8ne51191100 0.8 1013647
09:00+9ne71181100 0.8 10141244
12:00+10ne91374100 0.1 10151233
15:00+8ne91481100 0.5 10151433
18:00+7ene81487100 0.3 10141377
21:00+8e81287100 0.6 10161186
12 may, wed
wed1200:00+8e7128895 0.3 1017668
03:00+8ese61186100 0.4 1017822
06:00+7ese81394100 1.3 1017838
09:00+7ese71492100 4.9 1017680
12:00+12se8117594 1.3 10181036
15:00+14sse7964100 1.4 10181549
18:00+14sse4106573 0.1 10171180
21:00+10se228337 0.1 101711
13 may, thu
thu1300:00+9e22895 0.0 101713
03:00+9ese33925 0.0 101730
06:00+10ese3589100 0.0 1017117
09:00+17ese576212 0.0 1017585
12:00+21ese674993 0.0 10161394
15:00+22se6745100 0.0 10151549
18:00+20ese595981 0.0 1015365
21:00+15ese49768 0.0 1015155